Torna al catalogo

BREEZE-M DEB

AttivoHEO
NORAD 32032·DEBRIS·🇷🇺 Russia

Lanciato Feb 28, 2006 da Baikonur Cosmodrome

Loading…

Prossimi Passaggi (prossime 24 ore)

TLE

AggiornatoSource: Space-Track

Epoca: Sep 14, 2026, 05:22 UTC

1 32032U 06006K   26257.22421090  .00000044  00000-0  82585-4 0  9994
2 32032  51.3666 232.0227 4485007 210.7461 112.9753  6.19864542406302

Traccia BREEZE-M DEB in tempo reale con AllMySat

Download on the App Store